Location: Oberwangen
(47.4286°N, 8.9679°E)
Time: 10:54:38
(UTC+00:00)

Cosmos 1816 Rocket - Pass Details

Date: 25 October 2021
Orbit: 952 x 998 km, 82.9° (Epoch: 08 December)

Event Time Altitude Azimuth Distance (km) Brightness Sun altitude
Rises 18:44:44 0° 353° (N) 3,651 7.7 -25.3°
Reaches altitude 10° 18:47:17 10° 358° (N) 2,705 6.9 -25.8°
Enters shadow 18:52:31 53° 45° (NE) 1,178 4.6 -26.6°
